Home   Weather   United Kingdom   Liverpool   Past weeks
Flag for United Kingdom

Past Weather in Liverpool, England, United Kingdom — Yesterday and Last 2 Weeks

Currently: 41 °F. Low clouds. (Weather station: Liverpool Airport, United Kingdom). See more current weather

Past Weather in Liverpool — Graph

°F

Liverpool Temperature Yesterday

Maximum temperature yesterday: 54 °F (at 2:50 pm)
Minimum temperature yesterday: 36 °F (at 4:50 am)
Average temperature yesterday: 43 °F

High & Low Weather Summary for the Past Weeks

 TemperatureHumidityPressure
High59 °F (Feb 24, 12:20 pm)100% (Feb 15, 2:20 am)30.77 "Hg (Feb 15, 2:20 am)
Low34 °F (Feb 28, 7:20 am)55% (Feb 22, 2:20 pm)29.27 "Hg (Feb 18, 5:50 am)
Average49 °F83%29.99 "Hg
* Reported Feb 15 1:20 am — Mar 2 1:20 am, Liverpool. Weather by CustomWeather, © 2021

Note: Actual official high and low records may vary slightly from our data, if they occured in-between our weather recording intervals... More about our weather records

Liverpool Weather History for the Previous 24 Hours

Scroll right to see more
 ConditionsComfort  
Time TempWeatherWind HumidityBarometerVisibility
1:20 am
Tue, Mar 2
41 °FLow clouds.8 mph87%30.45 "HgN/A
12:50 am41 °FLow clouds.8 mph87%30.45 "HgN/A
12:20 am41 °FLow clouds.10 mph87%30.45 "HgN/A
11:50 pm
Mon, Mar 1
43 °FOvercast.10 mph81%30.45 "HgN/A
11:20 pm41 °FOvercast.10 mph87%30.45 "HgN/A
10:50 pm41 °FOvercast.10 mph87%30.45 "HgN/A
10:20 pm41 °FOvercast.10 mph87%30.45 "HgN/A
9:50 pm41 °FOvercast.12 mph87%30.45 "HgN/A
9:20 pm41 °FPassing clouds.9 mph87%30.45 "HgN/A
8:50 pm41 °FPassing clouds.12 mph87%30.45 "HgN/A
8:20 pm39 °FChilly.10 mph93%30.45 "HgN/A
7:50 pm39 °FChilly.9 mph93%30.45 "HgN/A
7:20 pm41 °FQuite cool.8 mph87%30.45 "HgN/A
6:50 pm41 °FQuite cool.12 mph87%30.45 "HgN/A
6:20 pm43 °FQuite cool.12 mph87%30.45 "HgN/A
5:50 pm45 °FClear.13 mph81%30.45 "Hg10 mi
5:20 pm46 °FSunny.13 mph76%30.45 "Hg10 mi
4:50 pm48 °FCool.13 mph76%30.42 "HgN/A
4:20 pm50 °FCool.12 mph76%30.45 "HgN/A
3:50 pm52 °FCool.8 mph72%30.45 "HgN/A
3:20 pm54 °FCool.5 mph67%30.45 "HgN/A
2:50 pm54 °FPassing clouds.5 mph67%30.45 "HgN/A
2:20 pm52 °FPassing clouds.5 mph67%30.45 "HgN/A
1:50 pm52 °FCool.5 mph72%30.48 "HgN/A
1:20 pm52 °FCool.7 mph67%30.48 "HgN/A
12:50 pm50 °FCool.9 mph71%30.48 "HgN/A
12:20 pm48 °FCool.9 mph76%30.51 "HgN/A
11:50 am48 °FCool.6 mph76%30.51 "HgN/A
11:20 am46 °FCool.5 mph82%30.51 "HgN/A
10:50 am46 °FCool.6 mph82%30.51 "HgN/A
10:20 am45 °FQuite cool.5 mph87%30.51 "HgN/A
9:50 am45 °FQuite cool.5 mph87%30.51 "HgN/A
9:20 am43 °FQuite cool.3 mph87%30.51 "HgN/A
8:50 am41 °FHaze.6 mph93%30.51 "Hg3 mi
8:20 am39 °FPassing clouds.6 mph93%30.51 "Hg4 mi
7:50 am36 °FPassing clouds.5 mph100%30.51 "Hg4 mi
7:20 am36 °FChilly.5 mph100%30.51 "Hg4 mi
6:50 am36 °FChilly.5 mph100%30.51 "Hg4 mi
6:20 am36 °FFog.5 mph93%30.51 "Hg3 mi
5:50 am36 °FFog.3 mph93%30.51 "Hg2 mi
5:20 am36 °FFog.6 mph100%30.51 "Hg3 mi
4:50 am36 °FHaze.5 mph100%30.54 "Hg3 mi
4:20 am37 °FHaze.5 mph93%30.54 "Hg2 mi
3:50 am39 °FChilly.3 mph100%30.54 "Hg5 mi
3:20 am37 °FChilly.3 mph93%30.54 "Hg4 mi
2:50 am39 °FChilly.3 mph93%30.54 "Hg4 mi
2:20 am39 °FChilly.5 mph93%30.54 "Hg4 mi
Weather by CustomWeather, © 2021

See weather overview